Location: Catstown
(52.4386°N, 7.2633°W)
Time: 15:30:26
(UTC+00:00)

Cosmos 1833 Rocket - Pass Details

Date: 20 January 2021
Orbit: 833 x 839 km, 71.0° (Epoch: 06 March)

Event Time Altitude Azimuth Distance (km) Brightness Sun altitude
Rises 21:12:49 0° 324° (NW) 3,392 6.5 -38.6°
Reaches altitude 10° 21:15:27 10° 315° (NW) 2,454 5.7 -39.0°
Enters shadow 21:18:17 25° 293° (WNW) 1,620 4.6 -39.4°
